Location: Juzet
(42.9779°N, 0.7597°E)
Time: 18:38:27
(UTC+00:00)

BREEZE-M TANK - Pass Details

Date: 14 July 2020
Orbit: 491 x 24796 km, 45.2° (Epoch: 11 August)

Event Time Altitude Azimuth Distance (km) Brightness Sun altitude
Exits shadow 03:36:27 - 275° (W) 2,209 5.0 -8.9°
Reaches altitude 10° 03:37:28 10° 278° (W) 1,696 4.4 -8.8°
Maximum altitude 03:40:30 66° 2° (N) 695 3.0 -8.3°
Drops below altitude 10° 03:46:53 10° 85° (E) 3,513 7.4 -7.4°
Sets 03:52:23 0° 88° (E) 6,107 8.6 -6.6°
